User: anonymous   Login
Location: Hepcat Sky Observatory
(29.9800°N, 95.6500°W)
Time: 12:36:21
(UTC-05:00)
Language:

Cosmos 2151 Rocket - Orbit

View from above orbital plane
View from above orbital plane
View from above satellite
View from above satellite

Ground track
Ground track

The orbit data is extracted from the following two-line orbital elements,

1 21423U 91042B   15188.17457512  .00000199  00000-0  23507-4 0  9993
2 21423 082.4947 265.7775 0019038 061.7604 298.5527 14.79520569297444
Epoch (UTC): 07 July 2015 04:11:23
Eccentricity: 0.0019038
inclination: 82.4947°
perigee height: 617 km
apogee height: 644 km
right ascension of ascending node: 265.7775°
argument of perigee: 61.7604°
revolutions per day: 14.79520569
mean anomaly at epoch: 298.5527°
orbit number at epoch: 29744

The dashed part of the orbit path shows where the satellite is in the earth's shadow,  

DLR